Tracking 29059 objects as of 19-Jun-2024
HD Live streaming from Space Station
objects crossing your sky now

OBJECT M

Track OBJECT M now!
10-day predictions


NORAD ID: 56857
Int'l Code: 2023-081M
Perigee: 445.3 km
Apogee: 457.8 km
Inclination: 97.4 °
Period: 93.5 minutes
Semi major axis: 6822 km
RCS: Unknown
Launch date: June 7, 2023
Source: (TBD)
Launch site: Jiuquan Satellite Launch Center, China (JSC)
Your satellite tracking list
Your tracking list is empty




NASA's NSSDC Master Catalog

Two Line Element Set (TLE):
1 56857U 23081M   24170.92315120  .00041554  00000-0  10182-2 0  9995
2 56857  97.3735 247.9123 0009148  38.0055 322.1835 15.40583430 57715
Source of the keplerian elements: AFSPC